When you browse on this site, cookies collect data to enhance your experience and personalize the content and advertising you see.
Visit our Privacy Policy to learn more. By continuing to use the site, you agree to this use of cookies and data.
  • In Austria
  • List of Countries
  • For 7 days
  • Water Temperature
  • Satellite Maps
  • Weather Map
  • News
  • Weather Widgets
  • user-avatar
    Login

    Hourly Weather Superior

    Today, 19 July, Friday

    Time Temperature Precipitation Wind Pressure Humidity
    00:00 +24°C° 0 mm 2 mps 736 mmHg 87%
    01:00 +23°C° 0 mm 2 mps 736 mmHg 88%
    02:00 +21°C° 0 mm 2 mps 736 mmHg 89%
    03:00 +21°C° 0 mm 2 mps 736 mmHg 90%
    04:00 +21°C° 0 mm 2 mps 736 mmHg 89%
    05:00 +21°C° 0 mm 2 mps 736 mmHg 87%
    06:00 +21°C° 0 mm 2 mps 737 mmHg 80%
    07:00 +24°C° 0 mm 2 mps 737 mmHg 71%
    08:00 +26°C° 0 mm 1 mps 737 mmHg 62%
    09:00 +29°C° 0 mm 1 mps 737 mmHg 53%
    10:00 +29°C° 0 mm 1 mps 737 mmHg 53%
    11:00 +30°C° 0 mm 1 mps 737 mmHg 53%
    12:00 +31°C° 0 mm 1 mps 737 mmHg 53%
    13:00 +31°C° 0 mm 1 mps 737 mmHg 48%
    14:00 +32°C° 0 mm 1 mps 737 mmHg 43%
    15:00 +34°C° 0 mm 2 mps 737 mmHg 38%
    16:00 +30°C° 0.1 mm 2 mps 737 mmHg 46%
    17:00 +28°C° 0.1 mm 3 mps 737 mmHg 54%
    18:00 +25°C° 0.1 mm 3 mps 736 mmHg 61%
    19:00 +24°C° 0.2 mm 3 mps 737 mmHg 68%
    20:00 +22°C° 0.2 mm 3 mps 737 mmHg 74%
    21:00 +21°C° 0.2 mm 3 mps 737 mmHg 81%
    22:00 +20°C° 0 mm 2 mps 738 mmHg 82%
    23:00 +20°C° 0 mm 1 mps 738 mmHg 83%

    Tomorrow, 20 July, Saturday

    Time Temperature Precipitation Wind Pressure Humidity
    00:00 +18°C° 0 mm 0 mps 738 mmHg 84%
    01:00 +19°C° 0 mm 1 mps 739 mmHg 86%
    02:00 +19°C° 0 mm 1 mps 739 mmHg 87%
    03:00 +19°C° 0 mm 1 mps 740 mmHg 89%
    04:00 +19°C° 0 mm 1 mps 740 mmHg 86%
    05:00 +19°C° 0 mm 2 mps 741 mmHg 83%
    06:00 +19°C° 0 mm 2 mps 741 mmHg 80%
    07:00 +20°C° 0 mm 2 mps 741 mmHg 78%
    08:00 +20°C° 0 mm 2 mps 741 mmHg 76%
    09:00 +20°C° 0 mm 2 mps 742 mmHg 75%
    10:00 +23°C° 0 mm 1 mps 742 mmHg 65%
    11:00 +26°C° 0 mm 1 mps 742 mmHg 55%
    12:00 +28°C° 0 mm 1 mps 742 mmHg 45%
    13:00 +28°C° 0 mm 1 mps 742 mmHg 42%
    14:00 +29°C° 0 mm 2 mps 742 mmHg 39%
    15:00 +29°C° 0 mm 2 mps 742 mmHg 37%
    16:00 +29°C° 0 mm 2 mps 742 mmHg 43%
    17:00 +28°C° 0 mm 2 mps 742 mmHg 49%
    18:00 +27°C° 0 mm 2 mps 742 mmHg 54%
    19:00 +25°C° 0 mm 2 mps 742 mmHg 60%
    20:00 +23°C° 0 mm 2 mps 743 mmHg 66%
    21:00 +20°C° 0 mm 2 mps 743 mmHg 72%
    22:00 +19°C° 0 mm 2 mps 743 mmHg 73%
    23:00 +19°C° 0 mm 2 mps 744 mmHg 75%

    Day after tomorrow, 21 July, Sunday

    Time Temperature Precipitation Wind Pressure Humidity
    00:00 +18°C° 0 mm 2 mps 744 mmHg 76%
    01:00 +18°C° 0 mm 1 mps 744 mmHg 80%
    02:00 +16°C° 0 mm 1 mps 744 mmHg 83%
    03:00 +16°C° 0 mm 1 mps 744 mmHg 86%
    04:00 +16°C° 0 mm 1 mps 744 mmHg 85%
    05:00 +16°C° 0 mm 1 mps 744 mmHg 84%
    06:00 +18°C° 0 mm 1 mps 745 mmHg 82%
    07:00 +20°C° 0 mm 1 mps 745 mmHg 75%
    08:00 +22°C° 0 mm 1 mps 745 mmHg 67%
    09:00 +24°C° 0 mm 2 mps 746 mmHg 59%
    10:00 +24°C° 0 mm 2 mps 745 mmHg 57%
    11:00 +25°C° 0 mm 2 mps 745 mmHg 55%
    12:00 +25°C° 0 mm 2 mps 745 mmHg 53%
    13:00 +25°C° 0 mm 2 mps 745 mmHg 54%
    14:00 +25°C° 0 mm 1 mps 745 mmHg 55%
    15:00 +26°C° 0 mm 1 mps 745 mmHg 55%
    16:00 +25°C° 0 mm 1 mps 745 mmHg 59%
    17:00 +25°C° 0 mm 1 mps 745 mmHg 62%
    18:00 +24°C° 0 mm 2 mps 745 mmHg 65%
    19:00 +23°C° 0 mm 1 mps 745 mmHg 67%
    20:00 +21°C° 0 mm 1 mps 745 mmHg 70%
    21:00 +20°C° 0 mm 1 mps 745 mmHg 72%
    22:00 +20°C° 0 mm 1 mps 745 mmHg 66%
    23:00 +19°C° 0 mm 2 mps 746 mmHg 61%

    22 July, Monday

    Time Temperature Precipitation Wind Pressure Humidity
    00:00 +19°C° 0 mm 3 mps 746 mmHg 56%
    01:00 +18°C° 0 mm 2 mps 746 mmHg 57%
    02:00 +17°C° 0 mm 2 mps 746 mmHg 58%
    03:00 +16°C° 0 mm 2 mps 747 mmHg 59%
    04:00 +15°C° 0 mm 2 mps 747 mmHg 61%
    05:00 +15°C° 0 mm 2 mps 747 mmHg 64%
    06:00 +14°C° 0 mm 3 mps 747 mmHg 66%
    07:00 +18°C° 0 mm 3 mps 748 mmHg 60%
    08:00 +20°C° 0 mm 3 mps 748 mmHg 54%
    09:00 +24°C° 0 mm 3 mps 748 mmHg 49%
    10:00 +25°C° 0 mm 3 mps 747 mmHg 45%
    11:00 +26°C° 0 mm 4 mps 747 mmHg 42%
    12:00 +28°C° 0 mm 4 mps 747 mmHg 38%
    13:00 +28°C° 0 mm 4 mps 747 mmHg 39%
    14:00 +28°C° 0 mm 4 mps 747 mmHg 41%
    15:00 +28°C° 0 mm 4 mps 746 mmHg 42%
    16:00 +27°C° 0 mm 4 mps 746 mmHg 45%
    17:00 +26°C° 0 mm 4 mps 746 mmHg 48%
    18:00 +25°C° 0 mm 4 mps 746 mmHg 51%
    19:00 +24°C° 0 mm 3 mps 747 mmHg 55%
    20:00 +21°C° 0 mm 3 mps 747 mmHg 59%
    21:00 +20°C° 0 mm 3 mps 747 mmHg 63%
    22:00 +19°C° 0 mm 3 mps 747 mmHg 66%
    23:00 +19°C° 0 mm 3 mps 747 mmHg 69%

    23 July, Tuesday

    Time Temperature Precipitation Wind Pressure Humidity
    00:00 +18°C° 0 mm 2 mps 747 mmHg 72%
    01:00 +18°C° 0 mm 2 mps 747 mmHg 76%
    02:00 +17°C° 0 mm 2 mps 747 mmHg 81%
    03:00 +16°C° 0 mm 2 mps 747 mmHg 86%
    04:00 +17°C° 0 mm 3 mps 747 mmHg 87%
    05:00 +17°C° 0 mm 3 mps 748 mmHg 87%
    06:00 +17°C° 0 mm 3 mps 748 mmHg 88%
    07:00 +19°C° 0.1 mm 3 mps 748 mmHg 81%
    08:00 +21°C° 0.1 mm 3 mps 748 mmHg 74%
    09:00 +24°C° 0.1 mm 3 mps 748 mmHg 67%
    10:00 +25°C° 0 mm 3 mps 747 mmHg 60%
    11:00 +27°C° 0 mm 3 mps 747 mmHg 52%
    12:00 +28°C° 0 mm 4 mps 746 mmHg 45%
    13:00 +29°C° 0 mm 4 mps 746 mmHg 43%
    14:00 +30°C° 0 mm 4 mps 746 mmHg 41%
    15:00 +30°C° 0 mm 4 mps 746 mmHg 40%
    16:00 +29°C° 0 mm 3 mps 746 mmHg 46%
    17:00 +28°C° 0 mm 3 mps 746 mmHg 52%
    18:00 +27°C° 0 mm 2 mps 745 mmHg 58%
    19:00 +25°C° 0 mm 2 mps 746 mmHg 60%
    20:00 +24°C° 0 mm 2 mps 746 mmHg 62%
    21:00 +23°C° 0 mm 2 mps 746 mmHg 64%
    22:00 +21°C° 0 mm 3 mps 746 mmHg 67%
    23:00 +20°C° 0 mm 3 mps 746 mmHg 71%

    24 July, Wednesday

    Time Temperature Precipitation Wind Pressure Humidity
    00:00 +19°C° 0 mm 3 mps 746 mmHg 74%
    01:00 +19°C° 0 mm 2 mps 746 mmHg 77%
    02:00 +19°C° 0 mm 2 mps 746 mmHg 81%
    03:00 +18°C° 0 mm 2 mps 746 mmHg 84%
    04:00 +18°C° 0.1 mm 2 mps 746 mmHg 85%
    05:00 +18°C° 0.1 mm 2 mps 746 mmHg 87%
    06:00 +18°C° 0.1 mm 2 mps 747 mmHg 88%
    07:00 +20°C° 0 mm 2 mps 747 mmHg 79%
    08:00 +23°C° 0 mm 2 mps 747 mmHg 70%
    09:00 +26°C° 0 mm 2 mps 747 mmHg 61%
    10:00 +27°C° 0 mm 2 mps 747 mmHg 55%
    11:00 +29°C° 0 mm 2 mps 747 mmHg 48%
    12:00 +30°C° 0 mm 2 mps 746 mmHg 42%
    13:00 +30°C° 0 mm 2 mps 746 mmHg 45%
    14:00 +29°C° 0 mm 2 mps 746 mmHg 48%
    15:00 +29°C° 0 mm 2 mps 746 mmHg 51%
    16:00 +27°C° 0 mm 2 mps 746 mmHg 58%
    17:00 +25°C° 0 mm 2 mps 746 mmHg 65%
    18:00 +23°C° 0 mm 2 mps 745 mmHg 72%
    19:00 +22°C° 0 mm 1 mps 746 mmHg 75%
    20:00 +21°C° 0 mm 1 mps 746 mmHg 78%
    21:00 +20°C° 0 mm 1 mps 746 mmHg 81%
    22:00 +19°C° 0 mm 1 mps 746 mmHg 84%
    23:00 +19°C° 0 mm 1 mps 746 mmHg 87%
    Show more